Location: Zagreb
(45.8000°N, 16.0000°E)
Time: 04:18:06
(UTC+02:00)

ISS - Visible Passes

Search period start: 02 August 2015 00:00
Search period end: 12 August 2015 00:00
Orbit: 401 x 403 km, 51.6° (Epoch: 01 August)

Date Brightness Start Highest point End Pass type
(mag) Time Alt. Az. Time Alt. Az. Time Alt. Az.
02 Aug -1.4 04:30:32 14° SSW 04:30:32 14° SSW 04:31:27 10° S visible
02 Aug -2.9 21:06:54 10° SW 21:09:59 40° SE 21:13:04 10° ENE visible
02 Aug -2.1 22:43:17 10° W 22:46:25 42° NNW 22:49:33 10° NE visible
03 Aug -1.0 00:20:29 10° WNW 00:22:37 25° NNW 00:22:37 25° NNW visible
03 Aug -2.8 21:50:06 10° WSW 21:53:19 61° NNW 21:56:34 10° ENE visible
03 Aug -1.3 23:27:16 10° WNW 23:30:10 28° N 23:31:27 21° NE visible
04 Aug -0.1 01:04:02 10° NW 01:04:02 10° NW 01:04:02 10° NW visible
04 Aug -3.4 20:57:01 10° WSW 21:00:17 83° SSE 21:03:33 10° ENE visible
04 Aug -1.5 22:33:59 10° WNW 22:36:58 32° N 22:39:57 10° NE visible
05 Aug -1.0 00:10:59 10° NW 00:12:47 24° NNW 00:12:47 24° NNW visible
05 Aug -1.9 21:40:42 10° W 21:43:47 39° NNW 21:46:53 10° NE visible
05 Aug -1.4 23:17:51 10° WNW 23:20:45 28° N 23:21:29 25° NNE visible
06 Aug -2.5 20:47:27 10° WSW 20:50:40 55° NNW 20:53:53 10° ENE visible
06 Aug -1.3 22:24:38 10° WNW 22:27:32 28° N 22:30:11 11° ENE visible
07 Aug -0.9 00:01:20 10° NW 00:02:45 22° NW 00:02:45 22° NW visible
07 Aug -1.5 21:31:20 10° WNW 21:34:17 30° N 21:37:15 10° NE visible
07 Aug -1.8 23:08:16 10° NW 23:11:16 32° NNE 23:11:26 32° NNE visible
08 Aug -1.5 22:15:08 10° WNW 22:18:03 29° N 22:20:06 16° ENE visible
08 Aug -0.7 23:51:36 10° WNW 23:52:41 19° NW 23:52:41 19° NW visible
09 Aug -1.4 21:21:55 10° WNW 21:24:47 28° N 21:27:40 10° ENE visible
09 Aug -2.2 22:58:33 10° NW 23:01:21 42° N 23:01:21 42° N visible
10 Aug -1.9 22:05:28 10° NW 22:08:30 34° NNE 22:10:01 22° ENE visible
10 Aug -0.6 23:41:52 10° WNW 23:42:36 16° WNW 23:42:36 16° WNW visible
11 Aug -1.6 21:12:20 10° WNW 21:15:15 29° N 21:18:11 10° ENE visible
11 Aug -2.5 22:48:45 10° WNW 22:51:18 50° NW 22:51:18 50° NW visible
